QPF
0.01 0.00 0.00 0.00 0.01 0.01 0.01 0.01 0.01 0.02 0.02 0.02 0.03 0.03 0.04 0.03 0.04 0.05 0.04 0.03 0.03 0.03 0.06 0.05 0.07 0.09 0.11 0.09 0.08 0.10 0.13 0.13 0.13 0.12 0.13 0.08 0.04 0.05 0.04 0.04 0.05 0.04 0.05
0.00 0.00 0.00 0.00 0.01 0.01 0.01 0.01 0.01 0.01 0.02 0.02 0.02 0.03 0.04 0.03 0.04 0.05 0.07 0.05 0.05 0.05 0.07 0.08 0.08 0.10 0.13 0.13 0.13 0.13 0.13 0.13 0.14 0.12 0.11 0.11 0.09 0.07 0.04 0.03 0.03 0.04 0.03
0.00 0.00 0.00 0.00 0.01 0.01 0.01 0.01 0.02 0.02 0.02 0.02 0.02 0.03 0.05 0.05 0.05 0.05 0.06 0.06 0.05 0.05 0.09 0.13 0.13 0.14 0.14 0.15 0.15 0.15 0.15 0.15 0.14 0.12 0.10 0.11 0.12 0.09 0.04 0.02 0.02 0.02 0.03
0.00 0.00 0.01 0.00 0.00 0.01 0.01 0.01 0.02 0.01 0.02 0.02 0.03 0.04 0.04 0.05 0.04 0.04 0.05 0.05 0.05 0.05 0.06 0.08 0.11 0.14 0.14 0.15 0.14 0.15 0.14 0.14 0.12 0.09 0.07 0.07 0.10 0.10 0.06 0.04 0.03 0.03 0.04
0.00 0.01 0.01 0.02 0.01 0.00 0.00 0.01 0.01 0.01 0.02 0.03 0.05 0.05 0.04 0.04 0.04 0.04 0.06 0.06 0.06 0.04 0.03 0.03 0.05 0.07 0.08 0.10 0.10 0.10 0.09 0.08 0.08 0.07 0.07 0.06 0.07 0.06 0.05 0.05 0.05 0.04 0.03
0.00 0.01 0.02 0.04 0.03 0.01 0.00 0.01 0.02 0.03 0.03 0.03 0.04 0.04 0.04 0.04 0.05 0.05 0.06 0.05 0.06 0.05 0.03 0.02 0.03 0.05 0.06 0.08 0.08 0.08 0.07 0.06 0.07 0.07 0.07 0.07 0.07 0.05 0.07 0.06 0.06 0.06 0.04
0.03 0.02 0.02 0.03 0.04 0.03 0.02 0.01 0.02 0.03 0.03 0.03 0.03 0.03 0.03 0.04 0.04 0.05 0.06 0.06 0.06 0.05 0.03 0.03 0.03 0.04 0.05 0.05 0.07 0.08 0.06 0.06 0.06 0.06 0.06 0.07 0.06 0.06 0.07 0.07 0.06 0.05 0.04
0.07 0.06 0.03 0.03 0.02 0.02 0.03 0.02 0.02 0.03 0.03 0.03 0.03 0.03 0.04 0.04 0.05 0.06 0.05 0.07 0.06 0.04 0.04 0.03 0.02 0.03 0.03 0.03 0.05 0.06 0.05 0.05 0.05 0.04 0.06 0.05 0.05 0.05 0.07 0.07 0.07 0.05 0.04
0.07 0.11 0.06 0.03 0.02 0.02 0.03 0.03 0.03 0.03 0.03 0.02 0.03 0.05 0.05 0.05 0.06 0.05 0.04 0.06 0.07 0.05 0.04 0.03 0.03 0.02 0.02 0.02 0.05 0.05 0.05 0.05 0.05 0.05 0.05 0.04 0.03 0.04 0.04 0.05 0.06 0.05 0.05
0.02 0.07 0.07 0.05 0.03 0.03 0.04 0.04 0.04 0.04 0.03 0.02 0.03 0.04 0.05 0.05 0.06 0.06 0.04 0.05 0.05 0.06 0.05 0.04 0.04 0.03 0.02 0.02 0.03 0.03 0.03 0.03 0.03 0.04 0.05 0.04 0.03 0.03 0.03 0.03 0.03 0.04 0.04
0.02 0.02 0.03 0.03 0.03 0.02 0.03 0.04 0.04 0.04 0.04 0.03 0.03 0.05 0.05 0.04 0.05 0.06 0.04 0.04 0.05 0.05 0.06 0.05 0.05 0.04 0.04 0.04 0.04 0.03 0.03 0.03 0.03 0.03 0.03 0.03 0.04 0.04 0.02 0.02 0.02 0.02 0.03
0.01 0.02 0.03 0.02 0.02 0.02 0.03 0.04 0.04 0.05 0.05 0.05 0.04 0.04 0.05 0.06 0.05 0.04 0.03 0.04 0.05 0.05 0.06 0.05 0.06 0.05 0.05 0.05 0.04 0.03 0.03 0.04 0.04 0.04 0.05 0.05 0.05 0.04 0.03 0.03 0.03 0.03 0.04
0.01 0.02 0.03 0.03 0.03 0.02 0.02 0.03 0.04 0.05 0.05 0.05 0.05 0.05 0.05 0.05 0.04 0.04 0.04 0.05 0.05 0.05 0.06 0.07 0.08 0.07 0.07 0.05 0.04 0.03 0.03 0.04 0.04 0.05 0.05 0.05 0.05 0.04 0.03 0.03 0.03 0.03 0.04
0.02 0.02 0.02 0.02 0.02 0.02 0.02 0.02 0.04 0.05 0.05 0.05 0.05 0.05 0.04 0.04 0.04 0.04 0.04 0.05 0.05 0.05 0.05 0.07 0.09 0.08 0.08 0.06 0.05 0.05 0.04 0.05 0.05 0.05 0.04 0.04 0.05 0.04 0.03 0.03 0.03 0.03 0.04
0.02 0.02 0.02 0.02 0.02 0.02 0.02 0.03 0.03 0.05 0.06 0.06 0.06 0.05 0.05 0.04 0.04 0.04 0.04 0.04 0.04 0.04 0.04 0.05 0.06 0.06 0.06 0.06 0.06 0.06 0.05 0.06 0.06 0.05 0.04 0.04 0.05 0.05 0.04 0.03 0.04 0.04 0.05
0.02 0.02 0.02 0.02 0.02 0.02 0.03 0.04 0.04 0.04 0.06 0.06 0.06 0.06 0.06 0.06 0.06 0.05 0.05 0.05 0.05 0.05 0.06 0.06 0.06 0.05 0.04 0.06 0.06 0.05 0.06 0.06 0.07 0.07 0.07 0.06 0.05 0.04 0.03 0.02 0.02 0.02 0.03
0.02 0.01 0.01 0.01 0.02 0.02 0.02 0.03 0.04 0.05 0.06 0.06 0.06 0.05 0.06 0.07 0.06 0.06 0.06 0.06 0.06 0.06 0.05 0.05 0.05 0.05 0.05 0.06 0.05 0.04 0.05 0.05 0.06 0.06 0.08 0.07 0.06 0.05 0.03 0.03 0.02 0.01 0.01
0.01 0.01 0.01 0.02 0.02 0.03 0.03 0.03 0.05 0.08 0.08 0.06 0.06 0.05 0.05 0.06 0.05 0.05 0.05 0.06 0.07 0.06 0.06 0.05 0.05 0.05 0.03 0.03 0.02 0.02 0.02 0.04 0.04 0.04 0.05 0.06 0.06 0.05 0.04 0.03 0.02 0.02 0.02
0.01 0.02 0.02 0.02 0.02 0.02 0.02 0.03 0.03 0.05 0.06 0.06 0.05 0.05 0.05 0.05 0.04 0.05 0.06 0.06 0.06 0.05 0.05 0.05 0.05 0.05 0.04 0.02 0.02 0.02 0.02 0.03 0.03 0.03 0.04 0.05 0.06 0.07 0.04 0.03 0.03 0.02 0.02
0.02 0.03 0.03 0.03 0.03 0.02 0.01 0.01 0.02 0.02 0.03 0.03 0.03 0.03 0.03 0.03 0.03 0.03 0.04 0.05 0.05 0.04 0.04 0.04 0.04 0.04 0.03 0.02 0.02 0.02 0.02 0.02 0.03 0.05 0.05 0.06 0.05 0.05 0.02 0.03 0.04 0.03 0.03
0.02 0.02 0.03 0.04 0.04 0.04 0.02 0.01 0.01 0.01 0.02 0.02 0.02 0.02 0.03 0.03 0.03 0.03 0.03 0.05 0.06 0.06 0.04 0.03 0.03 0.04 0.03 0.02 0.02 0.02 0.02 0.02 0.04 0.05 0.05 0.05 0.03 0.02 0.02 0.02 0.03 0.03 0.03
0.02 0.02 0.02 0.03 0.03 0.02 0.02 0.02 0.01 0.02 0.02 0.02 0.02 0.02 0.03 0.03 0.02 0.03 0.03 0.04 0.04 0.05 0.06 0.05 0.03 0.03 0.02 0.02 0.01 0.02 0.02 0.02 0.03 0.04 0.04 0.05 0.03 0.02 0.02 0.02 0.02 0.01 0.02
0.02 0.02 0.02 0.02 0.02 0.01 0.01 0.02 0.02 0.02 0.02 0.02 0.02 0.02 0.02 0.02 0.02 0.02 0.03 0.04 0.04 0.04 0.04 0.04 0.03 0.03 0.02 0.02 0.02 0.01 0.02 0.02 0.02 0.02 0.02 0.03 0.02 0.01 0.01 0.02 0.01 0.01 0.01
0.03 0.02 0.02 0.02 0.02 0.02 0.02 0.02 0.02 0.02 0.02 0.02 0.02 0.01 0.01 0.01 0.02 0.03 0.03 0.03 0.03 0.03 0.03 0.04 0.03 0.03 0.03 0.02 0.02 0.02 0.02 0.02 0.02 0.02 0.01 0.02 0.01 0.01 0.01 0.01 0.01 0.01 0.01
0.01 0.01 0.02 0.02 0.02 0.02 0.02 0.03 0.02 0.02 0.03 0.02 0.02 0.02 0.01 0.01 0.02 0.02 0.02 0.03 0.02 0.02 0.02 0.02 0.03 0.02 0.02 0.02 0.02 0.02 0.02 0.02 0.02 0.02 0.02 0.01 0.01 0.01 0.01 0.02 0.02 0.02 0.02
0.01 0.01 0.02 0.02 0.02 0.02 0.03 0.02 0.02 0.02 0.03 0.03 0.03 0.02 0.01 0.01 0.01 0.01 0.01 0.01 0.02 0.02 0.02 0.02 0.02 0.02 0.02 0.02 0.02 0.02 0.01 0.02 0.02 0.02 0.02 0.02 0.02 0.02 0.02 0.02 0.02 0.02 0.03
MSLP
1006.62 1006.03 1005.41 1004.86 1004.45 1004.26 1004.30 1004.57 1005.04 1005.63 1006.27 1006.87 1007.39 1007.78 1008.03 1008.18 1008.27 1008.34 1008.46 1008.66 1008.98 1009.42 1009.97 1010.60 1011.30 1012.02 1012.74 1013.44 1014.11 1014.74 1015.33 1015.88 1016.39 1016.86 1017.28 1017.65 1017.95 1018.17 1018.32 1018.39 1018.41 1018.38 1018.34
1008.18 1007.36 1006.47 1005.61 1004.89 1004.40 1004.19 1004.27 1004.62 1005.17 1005.83 1006.52 1007.14 1007.66 1008.03 1008.28 1008.43 1008.54 1008.67 1008.86 1009.16 1009.58 1010.11 1010.74 1011.42 1012.13 1012.83 1013.49 1014.11 1014.69 1015.23 1015.74 1016.23 1016.70 1017.14 1017.54 1017.89 1018.17 1018.36 1018.47 1018.49 1018.45 1018.35
1009.65 1008.62 1007.48 1006.35 1005.35 1004.58 1004.12 1004.00 1004.21 1004.69 1005.34 1006.07 1006.78 1007.41 1007.91 1008.27 1008.51 1008.68 1008.85 1009.05 1009.34 1009.74 1010.24 1010.83 1011.47 1012.13 1012.77 1013.37 1013.92 1014.43 1014.90 1015.36 1015.81 1016.26 1016.72 1017.16 1017.56 1017.91 1018.17 1018.33 1018.39 1018.36 1018.25
1010.93 1009.75 1008.43 1007.09 1005.86 1004.86 1004.18 1003.86 1003.92 1004.28 1004.88 1005.61 1006.37 1007.08 1007.68 1008.14 1008.49 1008.75 1008.97 1009.21 1009.52 1009.90 1010.36 1010.90 1011.48 1012.06 1012.62 1013.14 1013.60 1014.02 1014.41 1014.79 1015.20 1015.63 1016.08 1016.55 1017.01 1017.42 1017.76 1017.99 1018.11 1018.12 1018.04
1012.02 1010.76 1009.33 1007.87 1006.49 1005.33 1004.46 1003.96 1003.84 1004.06 1004.54 1005.21 1005.95 1006.69 1007.35 1007.91 1008.35 1008.71 1009.02 1009.31 1009.64 1010.02 1010.46 1010.95 1011.46 1011.96 1012.43 1012.85 1013.22 1013.54 1013.84 1014.16 1014.50 1014.90 1015.34 1015.82 1016.31 1016.78 1017.19 1017.50 1017.70 1017.77 1017.73
1012.95 1011.68 1010.24 1008.74 1007.30 1006.04 1005.04 1004.36 1004.06 1004.09 1004.41 1004.94 1005.59 1006.29 1006.97 1007.58 1008.10 1008.54 1008.93 1009.30 1009.68 1010.08 1010.51 1010.97 1011.42 1011.85 1012.24 1012.57 1012.85 1013.09 1013.31 1013.55 1013.83 1014.18 1014.59 1015.07 1015.58 1016.08 1016.54 1016.92 1017.18 1017.33 1017.37
1013.76 1012.56 1011.19 1009.75 1008.33 1007.03 1005.93 1005.11 1004.61 1004.42 1004.51 1004.84 1005.33 1005.91 1006.53 1007.14 1007.70 1008.22 1008.70 1009.14 1009.58 1010.03 1010.47 1010.91 1011.34 1011.72 1012.05 1012.33 1012.54 1012.71 1012.87 1013.05 1013.27 1013.57 1013.94 1014.39 1014.89 1015.40 1015.89 1016.32 1016.65 1016.86 1016.97
1014.52 1013.44 1012.21 1010.89 1009.55 1008.27 1007.12 1006.17 1005.47 1005.03 1004.86 1004.92 1005.18 1005.58 1006.08 1006.63 1007.19 1007.74 1008.28 1008.81 1009.32 1009.82 1010.30 1010.77 1011.19 1011.57 1011.88 1012.12 1012.31 1012.45 1012.58 1012.71 1012.89 1013.13 1013.45 1013.85 1014.32 1014.81 1015.30 1015.75 1016.13 1016.41 1016.59
1015.23 1014.32 1013.27 1012.12 1010.91 1009.70 1008.53 1007.47 1006.57 1005.88 1005.41 1005.17 1005.15 1005.32 1005.64 1006.07 1006.58 1007.14 1007.71 1008.30 1008.88 1009.44 1009.98 1010.49 1010.96 1011.35 1011.69 1011.96 1012.15 1012.30 1012.41 1012.53 1012.68 1012.88 1013.15 1013.49 1013.90 1014.36 1014.83 1015.28 1015.67 1016.00 1016.24
1015.90 1015.16 1014.32 1013.36 1012.31 1011.18 1010.02 1008.88 1007.81 1006.88 1006.12 1005.58 1005.25 1005.15 1005.25 1005.53 1005.95 1006.46 1007.04 1007.66 1008.29 1008.91 1009.52 1010.09 1010.61 1011.07 1011.46 1011.78 1012.03 1012.21 1012.35 1012.48 1012.61 1012.78 1013.00 1013.29 1013.63 1014.03 1014.47 1014.90 1015.30 1015.66 1015.95
1016.48 1015.92 1015.27 1014.51 1013.61 1012.60 1011.47 1010.28 1009.08 1007.94 1006.93 1006.10 1005.49 1005.12 1004.99 1005.08 1005.36 1005.79 1006.34 1006.95 1007.60 1008.27 1008.93 1009.56 1010.15 1010.68 1011.15 1011.55 1011.88 1012.13 1012.33 1012.48 1012.62 1012.78 1012.96 1013.19 1013.48 1013.82 1014.20 1014.60 1015.01 1015.38 1015.71
1016.94 1016.53 1016.04 1015.46 1014.72 1013.82 1012.75 1011.55 1010.27 1008.99 1007.78 1006.72 1005.86 1005.25 1004.89 1004.79 1004.92 1005.23 1005.70 1006.27 1006.90 1007.58 1008.26 1008.93 1009.58 1010.19 1010.74 1011.23 1011.65 1011.99 1012.26 1012.46 1012.63 1012.78 1012.94 1013.13 1013.37 1013.66 1014.00 1014.37 1014.76 1015.14 1015.50
1017.25 1016.95 1016.60 1016.15 1015.55 1014.77 1013.78 1012.61 1011.32 1009.96 1008.63 1007.41 1006.37 1005.56 1005.01 1004.72 1004.68 1004.86 1005.21 1005.69 1006.26 1006.90 1007.57 1008.26 1008.95 1009.61 1010.23 1010.81 1011.31 1011.74 1012.09 1012.35 1012.56 1012.73 1012.89 1013.06 1013.26 1013.51 1013.82 1014.16 1014.54 1014.93 1015.31
1017.41 1017.17 1016.92 1016.58 1016.10 1015.42 1014.53 1013.44 1012.17 1010.82 1009.45 1008.15 1006.99 1006.04 1005.34 1004.89 1004.69 1004.71 1004.92 1005.27 1005.74 1006.30 1006.92 1007.59 1008.27 1008.96 1009.64 1010.27 1010.85 1011.36 1011.79 1012.12 1012.39 1012.59 1012.76 1012.93 1013.12 1013.35 1013.64 1013.97 1014.34 1014.73 1015.12
1017.45 1017.24 1017.04 1016.77 1016.38 1015.80 1015.02 1014.02 1012.84 1011.54 1010.20 1008.90 1007.70 1006.68 1005.87 1005.29 1004.94 1004.80 1004.85 1005.05 1005.39 1005.83 1006.36 1006.96 1007.61 1008.29 1008.99 1009.66 1010.30 1010.88 1011.37 1011.77 1012.09 1012.35 1012.55 1012.74 1012.94 1013.17 1013.45 1013.78 1014.14 1014.53 1014.92
1017.41 1017.20 1017.02 1016.79 1016.46 1015.97 1015.28 1014.40 1013.33 1012.14 1010.89 1009.63 1008.46 1007.41 1006.54 1005.86 1005.39 1005.10 1004.99 1005.03 1005.21 1005.51 1005.92 1006.42 1007.01 1007.65 1008.33 1009.02 1009.69 1010.32 1010.87 1011.33 1011.71 1012.02 1012.28 1012.50 1012.72 1012.97 1013.26 1013.58 1013.95 1014.33 1014.71
1017.34 1017.11 1016.92 1016.70 1016.41 1015.98 1015.39 1014.62 1013.68 1012.62 1011.48 1010.32 1009.21 1008.18 1007.29 1006.55 1005.97 1005.55 1005.29 1005.17 1005.19 1005.34 1005.61 1006.00 1006.50 1007.08 1007.72 1008.40 1009.07 1009.72 1010.32 1010.84 1011.27 1011.64 1011.95 1012.22 1012.49 1012.77 1013.07 1013.40 1013.76 1014.13 1014.49
1017.30 1017.03 1016.81 1016.59 1016.30 1015.92 1015.40 1014.73 1013.91 1012.98 1011.97 1010.93 1009.91 1008.93 1008.05 1007.27 1006.62 1006.10 1005.71 1005.45 1005.32 1005.32 1005.46 1005.72 1006.11 1006.60 1007.18 1007.82 1008.48 1009.13 1009.75 1010.30 1010.79 1011.22 1011.59 1011.91 1012.23 1012.54 1012.86 1013.21 1013.56 1013.92 1014.26
1017.29 1016.99 1016.74 1016.49 1016.20 1015.84 1015.37 1014.78 1014.07 1013.26 1012.38 1011.45 1010.52 1009.61 1008.76 1007.98 1007.29 1006.70 1006.21 1005.83 1005.58 1005.45 1005.45 1005.59 1005.86 1006.25 1006.75 1007.32 1007.93 1008.56 1009.17 1009.74 1010.27 1010.74 1011.16 1011.54 1011.91 1012.26 1012.62 1012.97 1013.33 1013.67 1013.99
1017.31 1016.99 1016.71 1016.43 1016.13 1015.78 1015.34 1014.82 1014.19 1013.48 1012.71 1011.89 1011.04 1010.21 1009.40 1008.64 1007.93 1007.30 1006.75 1006.29 1005.93 1005.69 1005.58 1005.59 1005.75 1006.02 1006.41 1006.89 1007.42 1007.99 1008.57 1009.13 1009.67 1010.17 1010.63 1011.07 1011.48 1011.88 1012.27 1012.65 1013.02 1013.35 1013.66
1017.36 1017.02 1016.72 1016.42 1016.11 1015.76 1015.34 1014.86 1014.30 1013.68 1012.99 1012.26 1011.51 1010.74 1009.99 1009.26 1008.57 1007.92 1007.34 1006.82 1006.39 1006.06 1005.84 1005.74 1005.77 1005.91 1006.16 1006.52 1006.94 1007.42 1007.93 1008.46 1008.97 1009.48 1009.97 1010.45 1010.91 1011.35 1011.78 1012.20 1012.58 1012.94 1013.25
1017.39 1017.06 1016.75 1016.45 1016.13 1015.78 1015.39 1014.95 1014.45 1013.88 1013.27 1012.62 1011.94 1011.25 1010.56 1009.87 1009.21 1008.58 1007.98 1007.44 1006.96 1006.55 1006.23 1006.02 1005.91 1005.91 1006.01 1006.21 1006.49 1006.85 1007.26 1007.71 1008.18 1008.67 1009.17 1009.67 1010.17 1010.66 1011.14 1011.60 1012.03 1012.41 1012.76
1017.40 1017.08 1016.78 1016.49 1016.18 1015.86 1015.50 1015.09 1014.63 1014.13 1013.58 1013.00 1012.39 1011.77 1011.14 1010.51 1009.89 1009.28 1008.70 1008.15 1007.63 1007.17 1006.77 1006.45 1006.20 1006.04 1005.97 1006.00 1006.12 1006.32 1006.59 1006.94 1007.34 1007.79 1008.28 1008.80 1009.33 1009.86 1010.40 1010.91 1011.39 1011.83 1012.23
1017.36 1017.08 1016.81 1016.54 1016.27 1015.98 1015.65 1015.29 1014.88 1014.43 1013.94 1013.42 1012.88 1012.32 1011.75 1011.18 1010.61 1010.05 1009.49 1008.95 1008.43 1007.92 1007.45 1007.02 1006.65 1006.33 1006.10 1005.94 1005.88 1005.91 1006.04 1006.27 1006.58 1006.97 1007.43 1007.95 1008.50 1009.07 1009.65 1010.22 1010.77 1011.28 1011.74
1017.29 1017.05 1016.82 1016.60 1016.37 1016.12 1015.84 1015.53 1015.17 1014.78 1014.34 1013.89 1013.40 1012.91 1012.40 1011.90 1011.39 1010.88 1010.37 1009.85 1009.33 1008.80 1008.28 1007.77 1007.28 1006.84 1006.44 1006.12 1005.89 1005.76 1005.73 1005.83 1006.05 1006.37 1006.79 1007.29 1007.85 1008.46 1009.08 1009.70 1010.30 1010.88 1011.41
1017.20 1017.00 1016.82 1016.65 1016.47 1016.28 1016.05 1015.79 1015.48 1015.14 1014.77 1014.36 1013.93 1013.50 1013.06 1012.62 1012.18 1011.73 1011.28 1010.81 1010.31 1009.79 1009.26 1008.70 1008.14 1007.59 1007.08 1006.62 1006.25 1005.98 1005.83 1005.82 1005.94 1006.20 1006.57 1007.04 1007.60 1008.22 1008.86 1009.52 1010.16 1010.78 1011.37
Thickness
5814 5814 5810 5808 5803 5798 5793 5789 5785 5782 5779 5775 5771 5767 5764 5764 5762 5761 5758 5755 5752 5751 5749 5747 5745 5744 5742 5741 5740 5739 5738 5737 5738 5734 5732 5734 5737 5737 5737 5737 5736 5736 5735
5809 5807 5806 5804 5800 5795 5791 5787 5783 5780 5777 5774 5771 5768 5765 5763 5761 5759 5756 5753 5751 5749 5747 5744 5743 5741 5739 5738 5737 5736 5734 5734 5735 5731 5727 5723 5724 5730 5735 5735 5734 5733 5733
5805 5802 5801 5799 5797 5792 5789 5786 5782 5778 5776 5773 5770 5767 5763 5760 5757 5755 5753 5751 5749 5747 5745 5742 5741 5739 5737 5734 5734 5733 5730 5728 5731 5732 5727 5719 5714 5720 5727 5730 5731 5731 5730
5807 5803 5799 5796 5794 5792 5789 5785 5780 5777 5773 5771 5767 5762 5757 5753 5753 5753 5751 5750 5748 5745 5743 5740 5738 5736 5735 5733 5732 5731 5730 5728 5725 5728 5729 5728 5723 5717 5716 5722 5726 5727 5726
5808 5803 5800 5797 5795 5792 5788 5783 5778 5774 5771 5769 5765 5761 5757 5755 5754 5752 5749 5747 5745 5743 5740 5738 5736 5734 5732 5731 5730 5730 5728 5728 5725 5725 5725 5725 5724 5723 5716 5712 5717 5720 5723
5808 5804 5801 5796 5792 5790 5787 5782 5776 5771 5769 5766 5763 5759 5756 5753 5750 5747 5745 5743 5742 5740 5738 5736 5733 5732 5730 5729 5728 5728 5726 5725 5725 5724 5724 5722 5719 5717 5715 5711 5711 5712 5717
5805 5800 5796 5791 5787 5786 5783 5780 5774 5769 5767 5764 5761 5758 5756 5753 5749 5746 5743 5741 5738 5736 5735 5734 5731 5729 5728 5727 5727 5725 5725 5724 5723 5722 5722 5722 5721 5721 5717 5712 5709 5709 5713
5802 5798 5795 5790 5786 5783 5781 5777 5772 5768 5765 5762 5759 5757 5755 5752 5749 5747 5744 5740 5737 5736 5734 5731 5730 5728 5726 5726 5725 5723 5723 5722 5721 5721 5720 5719 5720 5720 5718 5713 5709 5704 5706
5797 5793 5790 5787 5784 5781 5778 5776 5770 5766 5763 5760 5758 5755 5753 5750 5748 5746 5743 5740 5738 5736 5732 5729 5728 5726 5724 5723 5722 5721 5720 5719 5719 5718 5717 5716 5717 5717 5717 5715 5712 5705 5699
5789 5783 5784 5782 5780 5779 5775 5773 5768 5764 5762 5760 5757 5754 5752 5749 5746 5743 5740 5738 5736 5734 5730 5727 5726 5724 5722 5721 5719 5718 5718 5717 5716 5715 5714 5713 5714 5714 5714 5713 5712 5709 5703
5783 5779 5777 5776 5777 5775 5772 5768 5765 5762 5759 5757 5754 5752 5749 5746 5743 5740 5738 5736 5734 5731 5728 5725 5723 5721 5719 5718 5716 5715 5715 5713 5712 5712 5711 5709 5710 5709 5710 5709 5708 5706 5703
5779 5775 5772 5769 5768 5768 5767 5764 5762 5759 5756 5754 5751 5748 5745 5742 5739 5737 5735 5734 5731 5728 5726 5724 5721 5719 5717 5715 5713 5712 5711 5710 5708 5708 5707 5706 5706 5704 5704 5703 5702 5701 5700
5770 5767 5763 5760 5759 5760 5761 5759 5757 5755 5754 5751 5747 5743 5740 5738 5735 5734 5732 5730 5727 5725 5723 5721 5718 5716 5714 5712 5711 5709 5708 5707 5706 5705 5703 5702 5701 5699 5699 5698 5697 5696 5696
5760 5757 5753 5751 5751 5752 5753 5752 5751 5750 5748 5745 5741 5738 5736 5734 5732 5729 5727 5726 5724 5721 5719 5717 5715 5713 5711 5709 5707 5705 5704 5703 5702 5702 5700 5698 5697 5695 5694 5693 5692 5691 5689
5748 5746 5745 5744 5744 5745 5745 5745 5744 5743 5742 5738 5735 5733 5732 5730 5727 5724 5723 5721 5719 5717 5715 5712 5710 5708 5707 5704 5701 5700 5699 5697 5696 5696 5695 5694 5692 5691 5689 5688 5686 5685 5683
5740 5739 5738 5737 5736 5736 5737 5736 5736 5736 5735 5731 5728 5727 5726 5723 5721 5719 5718 5715 5714 5712 5710 5707 5705 5702 5700 5697 5695 5693 5693 5692 5690 5689 5689 5688 5687 5686 5684 5683 5681 5680 5677
5734 5732 5731 5730 5730 5730 5729 5728 5728 5728 5726 5724 5722 5720 5719 5717 5715 5714 5711 5709 5707 5705 5703 5700 5699 5696 5694 5692 5690 5688 5686 5685 5685 5684 5683 5683 5683 5680 5679 5677 5676 5674 5673
5727 5726 5724 5723 5723 5723 5722 5721 5720 5718 5717 5715 5714 5713 5711 5709 5707 5705 5704 5702 5701 5698 5696 5694 5693 5691 5688 5686 5684 5682 5681 5680 5680 5679 5678 5677 5675 5674 5672 5672 5670 5669 5668
5720 5719 5718 5717 5716 5715 5714 5713 5711 5709 5708 5706 5706 5706 5705 5702 5699 5697 5696 5695 5694 5692 5690 5689 5687 5685 5682 5680 5678 5676 5675 5675 5674 5674 5673 5672 5669 5667 5666 5665 5664 5663 5662
5714 5712 5711 5709 5706 5705 5706 5704 5702 5701 5700 5700 5700 5700 5698 5695 5693 5691 5690 5689 5688 5686 5685 5683 5682 5680 5677 5674 5672 5669 5669 5668 5668 5668 5667 5666 5664 5661 5659 5658 5657 5655 5655
5705 5704 5702 5700 5697 5697 5697 5694 5694 5693 5694 5694 5693 5692 5691 5689 5688 5686 5684 5683 5681 5680 5679 5677 5675 5674 5672 5668 5665 5664 5663 5662 5662 5661 5661 5660 5657 5655 5653 5651 5650 5649 5648
5695 5694 5692 5690 5690 5690 5688 5686 5685 5686 5687 5687 5685 5684 5683 5683 5682 5679 5678 5677 5675 5673 5672 5670 5669 5669 5667 5664 5661 5658 5656 5656 5655 5654 5654 5652 5651 5649 5647 5645 5644 5643 5642
5686 5685 5683 5682 5682 5682 5681 5678 5679 5680 5679 5678 5677 5676 5676 5676 5675 5673 5671 5670 5669 5667 5666 5665 5664 5663 5662 5658 5655 5653 5650 5648 5647 5647 5646 5645 5643 5642 5640 5639 5638 5637 5636
5677 5675 5674 5673 5672 5672 5672 5672 5672 5672 5672 5670 5670 5670 5669 5668 5667 5667 5666 5665 5664 5663 5662 5660 5659 5657 5655 5651 5649 5646 5643 5640 5638 5638 5637 5637 5637 5636 5635 5634 5633 5631 5631
5668 5667 5665 5664 5663 5664 5665 5666 5666 5665 5663 5662 5662 5662 5662 5661 5659 5658 5658 5658 5657 5656 5654 5654 5652 5649 5646 5641 5638 5636 5635 5633 5631 5629 5629 5630 5630 5630 5630 5629 5628 5627 5625
5659 5658 5657 5656 5655 5656 5657 5658 5659 5657 5655 5654 5654 5655 5655 5655 5654 5652 5651 5649 5648 5647 5646 5644 5643 5640 5637 5633 5631 5628 5626 5623 5622 5621 5623 5624 5624 5623 5623 5622 5621 5619 5618